LGAVLGPZ

Guest
Details From LGAV - Athens Intl Airport Elefterios Venizel
To LGPZ - AKTIO
Flight Number -
Tags generated
Created
Modified
Stats Distance 161 nm / 299 km
Max Altitude 11,900 ft / 3,627 m
Waypoints 3
Social Downloads 0
Likes 0
Share VATSIM

Download

Looking for another format? Having issues loading an existing format? Contact us
Advertisement - Login to hide

Notes

Basic altitude profile: - Ascent Rate: 2500ft/min - Ascent Speed: 250kts - Cruise Altitude: 35000ft - Cruise Speed: 420kts - Descent Rate: 1500ft/min - Descent Speed: 250kts Options: - Use NATs: yes - Use PACOTS: yes - Use low airways: yes - Use high airways: yes

Route

LGAV ELVAS LGPZ

ID Type Via Altitude (ft/m) Position (lat/lon) Dist (leg/tot) Name
O LGAV APT - 0 / 0 37.93636 / 23.94447 - / 0 nm Athens Intl Airport Elefterios Venizel
ELVAS FIX - 11,900 / 3,627 38.52472 / 21.84194 105 / 105 nm
O LGPZ APT - 0 / 0 38.92547 / 20.76531 55 / 161 nm AKTIO

Altitude Profile

Advertisement - Login to hide

LGAV

Details ICAO LGAV (ATH)
Name Athens Eleftherios Venizelos
Region Greece
Timezone Europe/Athens (UTC+3.0)
Stats Elevation 308 ft / 94 m (AMSL)
Location 37.936700° 23.944500°
Runways 2
Magnetic Variation 4.625° E

METAR

LGAV 270020Z VRB02KT CAVOK 14/11 Q1015 NOSIG

Decode

TAF

TAF TAF LGAV 262300Z 2700/2724 VRB05KT 9999 FEW025 BECMG 2706/2708 05010KT BECMG 2710/2712 11010KT

Decode

Departure Runways

ID Width Length Bearing (true/mag) Surface Threshold Overrun Markings Lighting
03L 151 ft / 46 m 12,478 ft / 3,803 m 36.86° / 32.23° ASPHALT 984 ft / 300 m 394 ft / 120 m PREC-APP CENTERLINE EDGE THRESHOLD ALSF-II TDZ REIL-OMNI
03R 151 ft / 46 m 13,135 ft / 4,004 m 36.87° / 32.25° ASPHALT 984 ft / 300 m 394 ft / 120 m PREC-APP CENTERLINE EDGE THRESHOLD ALSF-II TDZ REIL-OMNI
21L 151 ft / 46 m 13,135 ft / 4,004 m 216.89° / 212.26° ASPHALT 984 ft / 300 m 394 ft / 120 m PREC-APP CENTERLINE EDGE THRESHOLD ALSF-II TDZ REIL-OMNI
21R 151 ft / 46 m 12,478 ft / 3,803 m 216.87° / 212.25° ASPHALT 984 ft / 300 m 394 ft / 120 m PREC-APP CENTERLINE EDGE THRESHOLD ALSF-II TDZ REIL-OMNI

LGPZ

Details ICAO LGPZ (PVK)
Name AKTIO
Region Greece
Timezone Europe/Athens (UTC+3.0)
Stats Elevation 11 ft / 3 m (AMSL)
Location 38.925500° 20.765300°
Runways 1
Magnetic Variation 4.303° E

METAR

LGPZ 262350Z 00000KT 9999 FEW025 BKN070 19/16 Q1014 BLU

Decode

TAF

TAF LGPZ 262300Z 2700/2724 08010KT 9999 FEW020 SCT070 PROB30 TEMPO 2703/2712 5000 RA SCT015 BKN080 TEMPO 2709/2712 08015G25KT

Decode

Destination Runways

ID Width Length Bearing (true/mag) Surface Threshold Overrun Markings Lighting
07L 148 ft / 45 m 9,404 ft / 2,866 m 67.79° / 63.49° ASPHALT 0 ft / 0 m 80 ft / 24 m APP EDGE THRESHOLD
25R 148 ft / 45 m 9,404 ft / 2,866 m 247.81° / 243.51° ASPHALT 492 ft / 150 m 380 ft / 116 m APP EDGE THRESHOLD MALS

Popular Alternatives